#Datum;Uhrzeit;WR;Pac;DaySum;Status;WR;Pac;DaySum;Status;Pdc1;Udc;Temp;WR;Pac;DaySum;Status;Pdc1;Udc;Temp;WR;Pac;DaySum;Status;Pdc1;Udc;Temp;WR;Pac;DaySum;Status;Pdc1;Pdc2;Udc1;Udc2;Temp;WR;Pac;DaySum;Status;Pdc1;Pdc2;Udc1;Udc2;Temp;WR;Pac;DaySum;Status;Pdc1;Udc;Temp;WR;Pac;DaySum;Status;Pdc1;Udc;Temp;WR;Pac;DaySum;Status;Pdc1;Udc;Temp
17.11.17;23:55:00;1;280;9510;0;2;0;2632;0;0;0;0;3;0;1588;0;0;0;0;4;0;2159;0;0;0;0;5;0;5628;0;0;0;0;0;0;6;0;4187;0;0;0;0;0;0;7;0;2772;0;0;0;0;8;0;2805;0;0;0;0;9;0;1484;0;0;0;0
17.11.17;23:50:00;1;287;9486;0;2;0;2632;0;0;0;0;3;0;1588;0;0;0;0;4;0;2159;0;0;0;0;5;0;5628;0;0;0;0;0;0;6;0;4187;0;0;0;0;0;0;7;0;2772;0;0;0;0;8;0;2805;0;0;0;0;9;0;1484;0;0;0;0
17.11.17;23:45:00;1;332;9462;0;2;0;2632;0;0;0;0;3;0;1588;0;0;0;0;4;0;2159;0;0;0;0;5;0;5628;0;0;0;0;0;0;6;0;4187;0;0;0;0;0;0;7;0;2772;0;0;0;0;8;0;2805;0;0;0;0;9;0;1484;0;0;0;0
17.11.17;23:40:00;1;441;9434;0;2;0;2632;0;0;0;0;3;0;1588;0;0;0;0;4;0;2159;0;0;0;0;5;0;5628;0;0;0;0;0;0;6;0;4187;0;0;0;0;0;0;7;0;2772;0;0;0;0;8;0;2805;0;0;0;0;9;0;1484;0;0;0;0
17.11.17;23:35:00;1;563;9397;0;2;0;2632;0;0;0;0;3;0;1588;0;0;0;0;4;0;2159;0;0;0;0;5;0;5628;0;0;0;0;0;0;6;0;4187;0;0;0;0;0;0;7;0;2772;0;0;0;0;8;0;2805;0;0;0;0;9;0;1484;0;0;0;0
17.11.17;23:30:00;1;603;9349;0;2;0;2632;0;0;0;0;3;0;1588;0;0;0;0;4;0;2159;0;0;0;0;5;0;5628;0;0;0;0;0;0;6;0;4187;0;0;0;0;0;0;7;0;2772;0;0;0;0;8;0;2805;0;0;0;0;9;0;1484;0;0;0;0
17.11.17;23:25:00;1;601;9299;0;2;0;2632;0;0;0;0;3;0;1588;0;0;0;0;4;0;2159;0;0;0;0;5;0;5628;0;0;0;0;0;0;6;0;4187;0;0;0;0;0;0;7;0;2772;0;0;0;0;8;0;2805;0;0;0;0;9;0;1484;0;0;0;0
17.11.17;23:20:00;1;691;9249;0;2;0;2632;0;0;0;0;3;0;1588;0;0;0;0;4;0;2159;0;0;0;0;5;0;5628;0;0;0;0;0;0;6;0;4187;0;0;0;0;0;0;7;0;2772;0;0;0;0;8;0;2805;0;0;0;0;9;0;1484;0;0;0;0
17.11.17;23:15:00;1;546;9199;0;2;0;2632;0;0;0;0;3;0;1588;0;0;0;0;4;0;2159;0;0;0;0;5;0;5628;0;0;0;0;0;0;6;0;4187;0;0;0;0;0;0;7;0;2772;0;0;0;0;8;0;2805;0;0;0;0;9;0;1484;0;0;0;0
17.11.17;23:10:00;1;481;9153;0;2;0;2632;0;0;0;0;3;0;1588;0;0;0;0;4;0;2159;0;0;0;0;5;0;5628;0;0;0;0;0;0;6;0;4187;0;0;0;0;0;0;7;0;2772;0;0;0;0;8;0;2805;0;0;0;0;9;0;1484;0;0;0;0
17.11.17;23:05:00;1;537;9113;0;2;0;2632;0;0;0;0;3;0;1588;0;0;0;0;4;0;2159;0;0;0;0;5;0;5628;0;0;0;0;0;0;6;0;4187;0;0;0;0;0;0;7;0;2772;0;0;0;0;8;0;2805;0;0;0;0;9;0;1484;0;0;0;0
17.11.17;23:00:00;1;557;9069;0;2;0;2632;0;0;0;0;3;0;1588;0;0;0;0;4;0;2159;0;0;0;0;5;0;5628;0;0;0;0;0;0;6;0;4187;0;0;0;0;0;0;7;0;2772;0;0;0;0;8;0;2805;0;0;0;0;9;0;1484;0;0;0;0
17.11.17;22:55:00;1;550;9023;0;2;0;2632;0;0;0;0;3;0;1588;0;0;0;0;4;0;2159;0;0;0;0;5;0;5628;2;0;0;0;0;0;6;0;4187;2;0;0;0;0;0;7;0;2772;0;0;0;0;8;0;2805;0;0;0;0;9;0;1484;0;0;0;0
17.11.17;22:50:00;1;568;8977;0;2;0;2632;0;0;0;0;3;0;1588;0;0;0;0;4;0;2159;0;0;0;0;5;0;5628;2;0;0;0;0;0;6;0;4187;2;0;0;0;0;0;7;0;2772;0;0;0;0;8;0;2805;0;0;0;0;9;0;1484;0;0;0;0
17.11.17;22:45:00;1;631;8929;0;2;0;2632;0;0;0;0;3;0;1588;0;0;0;0;4;0;2159;0;0;0;0;5;0;5628;2;0;0;0;0;0;6;0;4187;2;0;0;0;0;0;7;0;2772;0;0;0;0;8;0;2805;0;0;0;0;9;0;1484;0;0;0;0
17.11.17;22:40:00;1;652;8876;0;2;0;2632;0;0;0;0;3;0;1588;0;0;0;0;4;0;2159;0;0;0;0;5;0;5628;2;0;0;0;0;0;6;0;4187;2;0;0;0;0;0;7;0;2772;0;0;0;0;8;0;2805;0;0;0;0;9;0;1484;0;0;0;0
17.11.17;22:35:00;1;710;8821;0;2;0;2632;0;0;0;0;3;0;1588;0;0;0;0;4;0;2159;0;0;0;0;5;0;5628;2;0;0;0;0;0;6;0;4187;2;0;0;0;0;0;7;0;2772;0;0;0;0;8;0;2805;0;0;0;0;9;0;1484;0;0;0;0
17.11.17;22:30:00;1;699;8762;0;2;0;2632;0;0;0;0;3;0;1588;0;0;0;0;4;0;2159;0;0;0;0;5;0;5628;2;0;0;0;0;0;6;0;4187;2;0;0;0;0;0;7;0;2772;0;0;0;0;8;0;2805;0;0;0;0;9;0;1484;0;0;0;0
17.11.17;22:25:00;1;697;8703;0;2;0;2632;0;0;0;0;3;0;1588;0;0;0;0;4;0;2159;0;0;0;0;5;0;5628;2;0;0;0;0;0;6;0;4187;2;0;0;0;0;0;7;0;2772;0;0;0;0;8;0;2805;0;0;0;0;9;0;1484;0;0;0;0
17.11.17;22:20:00;1;651;8645;0;2;0;2632;0;0;0;0;3;0;1588;0;0;0;0;4;0;2159;0;0;0;0;5;0;5628;2;0;0;0;0;0;6;0;4187;2;0;0;0;0;0;7;0;2772;0;0;0;0;8;0;2805;0;0;0;0;9;0;1484;0;0;0;0
17.11.17;22:15:00;1;667;8590;0;2;0;2632;0;0;0;0;3;0;1588;0;0;0;0;4;0;2159;0;0;0;0;5;0;5628;2;0;0;0;0;0;6;0;4187;2;0;0;0;0;0;7;0;2772;0;0;0;0;8;0;2805;0;0;0;0;9;0;1484;0;0;0;0
17.11.17;22:10:00;1;613;8535;0;2;0;2632;0;0;0;0;3;0;1588;0;0;0;0;4;0;2159;0;0;0;0;5;0;5628;2;0;0;0;0;0;6;0;4187;2;0;0;0;0;0;7;0;2772;0;0;0;0;8;0;2805;0;0;0;0;9;0;1484;0;0;0;0
17.11.17;22:05:00;1;633;8484;0;2;0;2632;0;0;0;0;3;0;1588;0;0;0;0;4;0;2159;0;0;0;0;5;0;5628;2;0;0;0;0;0;6;0;4187;2;0;0;0;0;0;7;0;2772;0;0;0;0;8;0;2805;0;0;0;0;9;0;1484;0;0;0;0
17.11.17;22:00:00;1;563;8431;0;2;0;2632;0;0;0;0;3;0;1588;0;0;0;0;4;0;2159;0;0;0;0;5;0;5628;2;0;0;0;0;0;6;0;4187;2;0;0;0;0;0;7;0;2772;0;0;0;0;8;0;2805;0;0;0;0;9;0;1484;0;0;0;0
17.11.17;21:55:00;1;553;8384;0;2;0;2632;0;0;0;0;3;0;1588;0;0;0;0;4;0;2159;0;0;0;0;5;0;5628;2;0;0;0;0;0;6;0;4187;2;0;0;0;0;0;7;0;2772;0;0;0;0;8;0;2805;0;0;0;0;9;0;1484;0;0;0;0
17.11.17;21:50:00;1;551;8338;0;2;0;2632;0;0;0;0;3;0;1588;0;0;0;0;4;0;2159;0;0;0;0;5;0;5628;2;0;0;0;0;0;6;0;4187;2;0;0;0;0;0;7;0;2772;0;0;0;0;8;0;2805;0;0;0;0;9;0;1484;0;0;0;0
17.11.17;21:45:00;1;561;8292;0;2;0;2632;0;0;0;0;3;0;1588;0;0;0;0;4;0;2159;0;0;0;0;5;0;5628;2;0;0;0;0;0;6;0;4187;2;0;0;0;0;0;7;0;2772;0;0;0;0;8;0;2805;0;0;0;0;9;0;1484;0;0;0;0
17.11.17;21:40:00;1;648;8244;0;2;0;2632;0;0;0;0;3;0;1588;0;0;0;0;4;0;2159;0;0;0;0;5;0;5628;2;0;0;0;0;0;6;0;4187;2;0;0;0;0;0;7;0;2772;0;0;0;0;8;0;2805;0;0;0;0;9;0;1484;0;0;0;0
17.11.17;21:35:00;1;648;8187;0;2;0;2632;0;0;0;0;3;0;1588;0;0;0;0;4;0;2159;0;0;0;0;5;0;5628;2;0;0;0;0;0;6;0;4187;2;0;0;0;0;0;7;0;2772;0;0;0;0;8;0;2805;0;0;0;0;9;0;1484;0;0;0;0
17.11.17;21:30:00;1;672;8132;0;2;0;2632;0;0;0;0;3;0;1588;0;0;0;0;4;0;2159;0;0;0;0;5;0;5628;2;0;0;0;0;0;6;0;4187;2;0;0;0;0;0;7;0;2772;0;0;0;0;8;0;2805;0;0;0;0;9;0;1484;0;0;0;0
17.11.17;21:25:00;1;618;8076;0;2;0;2632;0;0;0;0;3;0;1588;0;0;0;0;4;0;2159;0;0;0;0;5;0;5628;2;0;0;0;0;0;6;0;4187;2;0;0;0;0;0;7;0;2772;0;0;0;0;8;0;2805;0;0;0;0;9;0;1484;0;0;0;0
17.11.17;21:20:00;1;629;8024;0;2;0;2632;0;0;0;0;3;0;1588;0;0;0;0;4;0;2159;0;0;0;0;5;0;5628;2;0;0;0;0;0;6;0;4187;2;0;0;0;0;0;7;0;2772;0;0;0;0;8;0;2805;0;0;0;0;9;0;1484;0;0;0;0
17.11.17;21:15:00;1;671;7969;0;2;0;2632;0;0;0;0;3;0;1588;0;0;0;0;4;0;2159;0;0;0;0;5;0;5628;2;0;0;0;0;0;6;0;4187;2;0;0;0;0;0;7;0;2772;0;0;0;0;8;0;2805;0;0;0;0;9;0;1484;0;0;0;0
17.11.17;21:10:00;1;629;7914;0;2;0;2632;0;0;0;0;3;0;1588;0;0;0;0;4;0;2159;0;0;0;0;5;0;5628;2;0;0;0;0;0;6;0;4187;2;0;0;0;0;0;7;0;2772;0;0;0;0;8;0;2805;0;0;0;0;9;0;1484;0;0;0;0
17.11.17;21:05:00;1;637;7862;0;2;0;2632;0;0;0;0;3;0;1588;0;0;0;0;4;0;2159;0;0;0;0;5;0;5628;2;0;0;0;0;0;6;0;4187;2;0;0;0;0;0;7;0;2772;0;0;0;0;8;0;2805;0;0;0;0;9;0;1484;0;0;0;0
17.11.17;21:00:00;1;631;7809;0;2;0;2632;0;0;0;0;3;0;1588;0;0;0;0;4;0;2159;0;0;0;0;5;0;5628;2;0;0;0;0;0;6;0;4187;2;0;0;0;0;0;7;0;2772;0;0;0;0;8;0;2805;0;0;0;0;9;0;1484;0;0;0;0
17.11.17;20:55:00;1;637;7756;0;2;0;2632;0;0;0;0;3;0;1588;0;0;0;0;4;0;2159;0;0;0;0;5;0;5628;2;0;0;0;0;0;6;0;4187;2;0;0;0;0;0;7;0;2772;0;0;0;0;8;0;2805;0;0;0;0;9;0;1484;0;0;0;0
17.11.17;20:50:00;1;662;7704;0;2;0;2632;0;0;0;0;3;0;1588;0;0;0;0;4;0;2159;0;0;0;0;5;0;5628;2;0;0;0;0;0;6;0;4187;2;0;0;0;0;0;7;0;2772;0;0;0;0;8;0;2805;0;0;0;0;9;0;1484;0;0;0;0
17.11.17;20:45:00;1;702;7648;0;2;0;2632;0;0;0;0;3;0;1588;0;0;0;0;4;0;2159;0;0;0;0;5;0;5628;2;0;0;0;0;0;6;0;4187;2;0;0;0;0;0;7;0;2772;0;0;0;0;8;0;2805;0;0;0;0;9;0;1484;0;0;0;0
17.11.17;20:40:00;1;694;7590;0;2;0;2632;0;0;0;0;3;0;1588;0;0;0;0;4;0;2159;0;0;0;0;5;0;5628;2;0;0;0;0;0;6;0;4187;2;0;0;0;0;0;7;0;2772;0;0;0;0;8;0;2805;0;0;0;0;9;0;1484;0;0;0;0
17.11.17;20:35:00;1;752;7531;0;2;0;2632;0;0;0;0;3;0;1588;0;0;0;0;4;0;2159;0;0;0;0;5;0;5628;2;0;0;0;0;0;6;0;4187;2;0;0;0;0;0;7;0;2772;0;0;0;0;8;0;2805;0;0;0;0;9;0;1484;0;0;0;0
17.11.17;20:30:00;1;922;7471;0;2;0;2632;0;0;0;0;3;0;1588;0;0;0;0;4;0;2159;0;0;0;0;5;0;5628;2;0;0;0;0;0;6;0;4187;2;0;0;0;0;0;7;0;2772;0;0;0;0;8;0;2805;0;0;0;0;9;0;1484;0;0;0;0
17.11.17;20:25:00;1;920;7394;0;2;0;2632;0;0;0;0;3;0;1588;0;0;0;0;4;0;2159;0;0;0;0;5;0;5628;2;0;0;0;0;0;6;0;4187;2;0;0;0;0;0;7;0;2772;0;0;0;0;8;0;2805;0;0;0;0;9;0;1484;0;0;0;0
17.11.17;20:20:00;1;909;7319;0;2;0;2632;0;0;0;0;3;0;1588;0;0;0;0;4;0;2159;0;0;0;0;5;0;5628;2;0;0;0;0;0;6;0;4187;2;0;0;0;0;0;7;0;2772;0;0;0;0;8;0;2805;0;0;0;0;9;0;1484;0;0;0;0
17.11.17;20:15:00;1;934;7242;0;2;0;2632;0;0;0;0;3;0;1588;0;0;0;0;4;0;2159;0;0;0;0;5;0;5628;2;0;0;0;0;0;6;0;4187;2;0;0;0;0;0;7;0;2772;0;0;0;0;8;0;2805;0;0;0;0;9;0;1484;0;0;0;0
17.11.17;20:10:00;1;954;7164;0;2;0;2632;0;0;0;0;3;0;1588;0;0;0;0;4;0;2159;0;0;0;0;5;0;5628;2;0;0;0;0;0;6;0;4187;2;0;0;0;0;0;7;0;2772;0;0;0;0;8;0;2805;0;0;0;0;9;0;1484;0;0;0;0
17.11.17;20:05:00;1;2673;7069;0;2;0;2632;0;0;0;0;3;0;1588;0;0;0;0;4;0;2159;0;0;0;0;5;0;5628;2;0;0;0;0;0;6;0;4187;2;0;0;0;0;0;7;0;2772;0;0;0;0;8;0;2805;0;0;0;0;9;0;1484;0;0;0;0
17.11.17;20:00:00;1;2386;6873;0;2;0;2632;0;0;0;0;3;0;1588;0;0;0;0;4;0;2159;0;0;0;0;5;0;5628;2;0;0;0;0;0;6;0;4187;2;0;0;0;0;0;7;0;2772;0;0;0;0;8;0;2805;0;0;0;0;9;0;1484;0;0;0;0
17.11.17;19:55:00;1;2788;6668;0;2;0;2632;0;0;0;0;3;0;1588;0;0;0;0;4;0;2159;0;0;0;0;5;0;5628;2;0;0;0;0;0;6;0;4187;2;0;0;0;0;0;7;0;2772;0;0;0;0;8;0;2805;0;0;0;0;9;0;1484;0;0;0;0
17.11.17;19:50:00;1;2774;6435;0;2;0;2632;0;0;0;0;3;0;1588;0;0;0;0;4;0;2159;0;0;0;0;5;0;5628;2;0;0;0;0;0;6;0;4187;2;0;0;0;0;0;7;0;2772;0;0;0;0;8;0;2805;0;0;0;0;9;0;1484;0;0;0;0
17.11.17;19:45:00;1;2132;6204;0;2;0;2632;0;0;0;0;3;0;1588;0;0;0;0;4;0;2159;0;0;0;0;5;0;5628;2;0;0;0;0;0;6;0;4187;2;0;0;0;0;0;7;0;2772;0;0;0;0;8;0;2805;0;0;0;0;9;0;1484;0;0;0;0
17.11.17;19:40:00;1;946;6058;0;2;0;2632;0;0;0;0;3;0;1588;0;0;0;0;4;0;2159;0;0;0;0;5;0;5628;2;0;0;0;0;0;6;0;4187;2;0;0;0;0;0;7;0;2772;0;0;0;0;8;0;2805;0;0;0;0;9;0;1484;0;0;0;0
17.11.17;19:35:00;1;843;5978;0;2;0;2632;0;0;0;0;3;0;1588;0;0;0;0;4;0;2159;0;0;0;0;5;0;5628;2;0;0;0;0;0;6;0;4187;2;0;0;0;0;0;7;0;2772;0;0;0;0;8;0;2805;0;0;0;0;9;0;1484;0;0;0;0
17.11.17;19:30:00;1;765;5908;0;2;0;2632;0;0;0;0;3;0;1588;0;0;0;0;4;0;2159;0;0;0;0;5;0;5628;2;0;0;0;0;0;6;0;4187;2;0;0;0;0;0;7;0;2772;0;0;0;0;8;0;2805;0;0;0;0;9;0;1484;0;0;0;0
17.11.17;19:25:00;1;576;5841;0;2;0;2632;0;0;0;0;3;0;1588;0;0;0;0;4;0;2159;0;0;0;0;5;0;5628;2;0;0;0;0;0;6;0;4187;2;0;0;0;0;0;7;0;2772;0;0;0;0;8;0;2805;0;0;0;0;9;0;1484;0;0;0;0
17.11.17;19:20:00;1;559;5794;0;2;0;2632;0;0;0;0;3;0;1588;0;0;0;0;4;0;2159;0;0;0;0;5;0;5628;2;0;0;0;0;0;6;0;4187;2;0;0;0;0;0;7;0;2772;0;0;0;0;8;0;2805;0;0;0;0;9;0;1484;0;0;0;0
17.11.17;19:15:00;1;525;5747;0;2;0;2632;0;0;0;0;3;0;1588;0;0;0;0;4;0;2159;0;0;0;0;5;0;5628;2;0;0;0;0;0;6;0;4187;2;0;0;0;0;0;7;0;2772;0;0;0;0;8;0;2805;0;0;0;0;9;0;1484;0;0;0;0
17.11.17;19:10:00;1;509;5704;0;2;0;2632;0;0;0;0;3;0;1588;0;0;0;0;4;0;2159;0;0;0;0;5;0;5628;2;0;0;0;0;0;6;0;4187;2;0;0;0;0;0;7;0;2772;0;0;0;0;8;0;2805;0;0;0;0;9;0;1484;0;0;0;0
17.11.17;19:05:00;1;500;5662;0;2;0;2632;0;0;0;0;3;0;1588;0;0;0;0;4;0;2159;0;0;0;0;5;0;5628;2;0;0;0;0;0;6;0;4187;2;0;0;0;0;0;7;0;2772;0;0;0;0;8;0;2805;0;0;0;0;9;0;1484;0;0;0;0
17.11.17;19:00:00;1;476;5620;0;2;0;2632;0;0;0;0;3;0;1588;0;0;0;0;4;0;2159;0;0;0;0;5;0;5628;2;0;0;0;0;0;6;0;4187;2;0;0;0;0;0;7;0;2772;0;0;0;0;8;0;2805;0;0;0;0;9;0;1484;0;0;0;0
17.11.17;18:55:00;1;525;5579;0;2;0;2632;0;0;0;0;3;0;1588;0;0;0;0;4;0;2159;0;0;0;0;5;0;5628;2;0;0;0;0;0;6;0;4187;2;0;0;0;0;0;7;0;2772;0;0;0;0;8;0;2805;0;0;0;0;9;0;1484;0;0;0;0
17.11.17;18:50:00;1;503;5533;0;2;0;2632;0;0;0;0;3;0;1588;0;0;0;0;4;0;2159;0;0;0;0;5;0;5628;2;0;0;0;0;0;6;0;4187;2;0;0;0;0;0;7;0;2772;0;0;0;0;8;0;2805;0;0;0;0;9;0;1484;0;0;0;0
17.11.17;18:45:00;1;523;5491;0;2;0;2632;0;0;0;0;3;0;1588;0;0;0;0;4;0;2159;0;0;0;0;5;0;5628;2;0;0;0;0;0;6;0;4187;2;0;0;0;0;0;7;0;2772;0;0;0;0;8;0;2805;0;0;0;0;9;0;1484;0;0;0;0
17.11.17;18:40:00;1;487;5447;0;2;0;2632;0;0;0;0;3;0;1588;0;0;0;0;4;0;2159;0;0;0;0;5;0;5628;2;0;0;0;0;0;6;0;4187;2;0;0;0;0;0;7;0;2772;0;0;0;0;8;0;2805;0;0;0;0;9;0;1484;0;0;0;0
17.11.17;18:35:00;1;464;5407;0;2;0;2632;0;0;0;0;3;0;1588;0;0;0;0;4;0;2159;0;0;0;0;5;0;5628;2;0;0;0;0;0;6;0;4187;2;0;0;0;0;0;7;0;2772;0;0;0;0;8;0;2805;0;0;0;0;9;0;1484;0;0;0;0
17.11.17;18:30:00;1;470;5368;0;2;0;2632;0;0;0;0;3;0;1588;0;0;0;0;4;0;2159;0;0;0;0;5;0;5628;2;0;0;0;0;0;6;0;4187;2;0;0;0;0;0;7;0;2772;0;0;0;0;8;0;2805;0;0;0;0;9;0;1484;0;0;0;0
17.11.17;18:25:00;1;468;5329;0;2;0;2632;0;0;0;0;3;0;1588;0;0;0;0;4;0;2159;0;0;0;0;5;0;5628;2;0;0;0;0;0;6;0;4187;2;0;0;0;0;0;7;0;2772;0;0;0;0;8;0;2805;0;0;0;0;9;0;1484;0;0;0;0
17.11.17;18:20:00;1;468;5289;0;2;0;2632;0;0;0;0;3;0;1588;0;0;0;0;4;0;2159;0;0;0;0;5;0;5628;2;0;0;0;0;0;6;0;4187;2;0;0;0;0;0;7;0;2772;0;0;0;0;8;0;2805;0;0;0;0;9;0;1484;0;0;0;0
17.11.17;18:15:00;1;480;5250;0;2;0;2632;0;0;0;0;3;0;1588;0;0;0;0;4;0;2159;0;0;0;0;5;0;5628;2;0;0;0;0;0;6;0;4187;2;0;0;0;0;0;7;0;2772;0;0;0;0;8;0;2805;0;0;0;0;9;0;1484;0;0;0;0
17.11.17;18:10:00;1;533;5209;0;2;0;2632;0;0;0;0;3;0;1588;0;0;0;0;4;0;2159;0;0;0;0;5;0;5628;2;0;0;0;0;0;6;0;4187;2;0;0;0;0;0;7;0;2772;0;0;0;0;8;0;2805;0;0;0;0;9;0;1484;0;0;0;0
17.11.17;18:05:00;1;530;5165;0;2;0;2632;0;0;0;0;3;0;1588;0;0;0;0;4;0;2159;0;0;0;0;5;0;5628;2;0;0;0;0;0;6;0;4187;2;0;0;0;0;0;7;0;2772;0;0;0;0;8;0;2805;0;0;0;0;9;0;1484;0;0;0;0
17.11.17;18:00:00;1;598;5121;0;2;0;2632;0;0;0;0;3;0;1588;0;0;0;0;4;0;2159;0;0;0;0;5;0;5628;2;0;0;0;0;0;6;0;4187;2;0;0;0;0;0;7;0;2772;0;0;0;0;8;0;2805;0;0;0;0;9;0;1484;0;0;0;0
17.11.17;17:55:00;1;679;5070;0;2;0;2632;0;0;0;0;3;0;1588;0;0;0;0;4;0;2159;0;0;0;0;5;0;5628;2;0;0;0;0;0;6;0;4187;2;0;0;0;0;0;7;0;2772;0;0;0;0;8;0;2805;0;0;0;0;9;0;1484;0;0;0;0
17.11.17;17:50:00;1;629;5016;0;2;0;2632;0;0;0;0;3;0;1588;0;0;0;0;4;0;2159;0;0;0;0;5;0;5628;2;0;0;0;0;0;6;0;4187;2;0;0;0;0;0;7;0;2772;0;0;0;0;8;0;2805;0;0;0;0;9;0;1484;0;0;0;0
17.11.17;17:45:00;1;887;4963;0;2;0;2632;0;0;0;0;3;0;1588;0;0;0;0;4;0;2159;0;0;0;0;5;0;5628;2;0;0;0;0;0;6;0;4187;2;0;0;0;0;0;7;0;2772;0;0;0;0;8;0;2805;0;0;0;0;9;0;1484;0;0;0;0
17.11.17;17:40:00;1;623;4886;0;2;0;2632;0;0;0;0;3;0;1588;0;0;0;0;4;0;2159;0;0;0;0;5;0;5628;2;0;0;0;0;0;6;0;4187;2;0;0;0;0;0;7;0;2772;0;0;0;0;8;0;2805;0;0;0;0;9;0;1484;0;0;0;0
17.11.17;17:35:00;1;589;4833;0;2;0;2632;0;0;0;0;3;0;1588;0;0;0;0;4;0;2159;0;0;0;0;5;0;5628;2;0;0;0;0;0;6;0;4187;2;0;0;0;0;0;7;0;2772;0;0;0;0;8;0;2805;0;0;0;0;9;0;1484;0;0;0;0
17.11.17;17:30:00;1;581;4785;0;2;0;2632;0;0;0;0;3;0;1588;0;0;0;0;4;0;2159;0;0;0;0;5;0;5628;2;0;0;0;0;0;6;0;4187;2;0;0;0;0;0;7;0;2772;0;0;0;0;8;0;2805;0;0;0;0;9;0;1484;0;0;0;0
17.11.17;17:25:00;1;1097;4731;0;2;0;2632;0;0;0;0;3;0;1588;0;0;0;0;4;0;2159;0;0;0;0;5;0;5628;2;0;0;0;0;0;6;0;4187;2;0;0;0;0;0;7;0;2772;0;0;0;0;8;0;2805;0;0;0;0;9;0;1484;0;0;0;0
17.11.17;17:20:00;1;1064;4643;0;2;0;2632;0;0;0;0;3;0;1588;0;0;0;0;4;0;2159;0;0;0;0;5;0;5628;2;0;0;0;0;0;6;0;4187;2;0;0;0;0;0;7;0;2772;0;0;0;0;8;0;2805;0;0;0;0;9;0;1484;0;0;0;0
17.11.17;17:15:00;1;426;4558;0;2;0;2632;0;0;0;0;3;0;1588;0;0;0;0;4;0;2159;0;0;0;0;5;0;5628;2;0;0;0;0;0;6;0;4187;2;0;0;0;0;0;7;0;2772;0;0;0;0;8;0;2805;0;0;0;0;9;0;1484;0;0;0;0
17.11.17;17:10:00;1;282;4518;0;2;0;2632;0;0;0;0;3;0;1588;0;0;0;0;4;0;2159;0;0;0;0;5;0;5628;2;0;0;0;0;0;6;0;4187;2;0;0;0;0;0;7;0;2772;0;0;0;0;8;0;2805;0;0;0;0;9;0;1484;0;0;0;0
17.11.17;17:05:00;1;383;4490;0;2;0;2632;0;0;0;0;3;0;1588;0;0;0;0;4;0;2159;0;0;0;0;5;0;5628;2;0;0;0;0;0;6;0;4187;2;0;0;0;0;0;7;0;2772;0;0;0;0;8;0;2805;0;0;0;0;9;0;1484;0;0;0;0
17.11.17;17:00:00;1;339;4458;0;2;0;2632;0;0;0;0;3;0;1588;0;0;0;0;4;0;2159;0;0;0;0;5;0;5628;2;0;0;0;0;0;6;0;4187;2;0;0;0;0;0;7;0;2772;0;0;0;0;8;0;2805;0;0;0;0;9;0;1484;0;0;0;0
17.11.17;16:55:00;1;286;4431;0;2;0;2632;0;0;0;0;3;0;1588;0;0;0;0;4;0;2159;0;0;0;0;5;0;5628;2;0;0;0;0;0;6;0;4187;2;0;0;0;0;0;7;0;2772;0;0;0;0;8;0;2805;0;0;0;0;9;0;1484;0;0;0;0
17.11.17;16:50:00;1;242;4408;0;2;0;2632;0;0;0;0;3;0;1588;0;0;0;0;4;0;2159;0;0;0;0;5;0;5628;2;0;0;0;0;0;6;0;4187;2;0;0;0;0;0;7;0;2772;0;0;0;0;8;0;2805;0;0;0;0;9;0;1484;0;0;0;0
17.11.17;16:45:00;1;224;4388;0;2;0;2632;0;0;0;0;3;0;1588;0;0;36;2;4;0;2159;0;0;0;0;5;0;5628;2;0;0;0;0;0;6;0;4187;2;0;0;0;0;0;7;0;2772;0;0;0;0;8;0;2805;0;0;0;0;9;0;1484;0;0;0;0
17.11.17;16:40:00;1;225;4370;0;2;0;2632;0;0;220;10;3;0;1588;6;0;290;14;4;0;2159;0;0;20;3;5;0;5628;2;0;0;0;0;1;6;0;4187;2;0;0;0;0;0;7;0;2772;0;0;0;0;8;0;2805;0;0;0;0;9;0;1484;0;0;0;0
17.11.17;16:35:00;1;286;4351;0;2;0;2632;6;0;307;12;3;0;1588;6;0;358;15;4;0;2159;2;0;87;9;5;0;5628;0;1;0;28;26;5;6;0;4187;2;0;0;0;0;1;7;0;2772;0;0;0;0;8;0;2805;0;0;0;0;9;0;1484;0;0;0;0
17.11.17;16:30:00;1;584;4327;0;2;0;2632;6;0;335;12;3;0;1588;6;0;408;15;4;0;2159;1;0;115;10;5;0;5628;23;9;0;198;197;21;6;0;4187;2;4;2;149;307;16;7;0;2772;0;0;0;0;8;0;2805;0;0;41;2;9;0;1484;0;0;174;6
17.11.17;16:25:00;1;224;4284;0;2;0;2632;6;0;356;12;3;0;1588;3;2;412;15;4;0;2159;1;0;143;10;5;0;5628;23;12;0;136;224;22;6;0;4187;23;4;3;525;180;20;7;0;2772;6;0;280;14;8;0;2805;6;0;285;13;9;0;1484;6;0;302;9
17.11.17;16:20:00;1;224;4265;0;2;0;2632;6;0;376;12;3;2;1588;6;4;425;15;4;0;2159;1;0;176;10;5;0;5628;23;7;0;249;245;22;6;0;4187;23;4;6;569;180;21;7;0;2772;6;0;340;14;8;0;2805;6;0;346;13;9;0;1484;6;0;365;10
17.11.17;16:15:00;1;229;4246;0;2;0;2632;6;0;393;13;3;1;1587;6;3;477;15;4;0;2159;1;0;208;10;5;7;5628;8;15;0;396;589;23;6;0;4187;23;5;4;182;571;21;7;0;2772;6;0;405;14;8;0;2805;6;0;411;14;9;0;1484;6;0;418;10
17.11.17;16:10:00;1;260;4227;0;2;0;2632;6;0;406;13;3;1;1587;6;3;490;15;4;0;2159;1;0;214;11;5;57;5627;4;76;0;331;530;24;6;19;4187;1;7;14;542;532;22;7;0;2772;6;0;451;14;8;0;2805;6;0;439;14;9;0;1484;6;1;471;10
17.11.17;16:05:00;1;365;4205;0;2;0;2632;6;0;420;13;3;0;1587;6;10;488;15;4;0;2159;3;0;206;11;5;88;5622;4;59;10;331;531;24;6;65;4186;4;22;27;456;455;23;7;3;2772;4;8;442;14;8;0;2805;3;6;448;14;9;2;1484;6;2;514;10
17.11.17;16:00:00;1;310;4175;0;2;15;2632;3;25;404;13;3;0;1587;6;0;550;16;4;6;2159;3;6;199;11;5;120;5615;4;77;19;331;531;24;6;89;4180;4;50;59;456;455;23;7;4;2772;6;9;479;15;8;4;2805;6;8;477;14;9;0;1483;6;5;529;10
17.11.17;15:55:00;1;512;4149;0;2;54;2631;4;81;354;14;3;7;1587;4;18;512;16;4;15;2159;3;16;198;11;5;146;5604;4;114;40;331;530;24;6;102;4173;4;41;52;456;455;23;7;18;2771;6;34;433;15;8;20;2805;6;34;434;14;9;2;1483;4;5;539;10
17.11.17;15:50:00;1;394;4113;0;2;62;2626;4;87;366;14;3;6;1586;6;11;535;16;4;21;2157;3;22;198;11;5;161;5592;4;141;49;331;530;24;6;115;4164;4;54;61;456;455;23;7;36;2770;4;74;357;15;8;47;2803;4;74;354;15;9;9;1483;3;17;513;10
17.11.17;15:45:00;1;1857;4077;0;2;65;2621;4;90;361;14;3;5;1586;6;10;537;16;4;22;2156;3;22;198;11;5;163;5579;4;141;47;331;530;24;6;122;4154;4;49;60;456;455;23;7;37;2767;4;73;354;15;8;44;2800;4;72;355;15;9;4;1482;6;7;547;11
17.11.17;15:40:00;1;1890;3919;0;2;63;2616;4;89;373;14;3;6;1585;6;13;535;16;4;20;2154;3;20;198;11;5;168;5565;4;141;54;331;530;24;6;128;4144;4;57;68;456;455;23;7;44;2764;4;74;355;15;8;45;2796;4;74;355;15;9;9;1482;6;17;510;11
17.11.17;15:35:00;1;300;3765;0;2;80;2610;4;106;364;14;3;6;1585;6;12;533;16;4;36;2152;3;37;198;11;5;197;5551;4;178;74;331;530;24;6;147;4133;4;76;85;455;455;23;7;48;2760;4;81;402;15;8;47;2792;4;80;410;15;9;3;1481;6;7;550;11
17.11.17;15:30:00;1;267;3739;0;2;90;2604;4;119;371;14;3;0;1584;6;0;572;16;4;50;2149;3;52;198;11;5;230;5534;4;140;58;392;530;24;6;158;4121;4;76;86;456;455;23;7;41;2756;4;89;448;15;8;52;2788;4;84;452;15;9;6;1481;6;10;549;11
17.11.17;15:25:00;1;348;3716;0;2;115;2596;4;143;372;14;3;62;1584;4;97;462;17;4;73;2145;3;76;198;12;5;275;5515;4;167;71;399;530;24;6;194;4107;4;100;112;456;455;22;7;87;2753;4;122;426;15;8;94;2784;4;125;437;15;9;0;1480;6;0;586;11
17.11.17;15:20:00;1;329;3690;0;2;156;2587;4;187;376;14;3;89;1579;4;126;499;17;4;124;2139;5;129;227;12;5;351;5491;4;231;108;402;530;24;6;246;4091;4;136;156;456;454;22;7;124;2745;4;167;406;15;8;141;2776;4;166;422;15;9;71;1480;4;96;452;12
17.11.17;15:15:00;1;390;3664;0;2;175;2574;4;205;376;14;3;100;1572;4;140;507;17;4;130;2129;5;135;223;12;5;377;5462;4;266;128;405;531;24;6;257;4070;4;147;161;456;455;22;7;148;2735;4;180;421;15;8;153;2764;4;183;429;15;9;79;1475;4;105;473;12
17.11.17;15:10:00;1;436;3631;0;2;172;2559;4;204;384;14;3;98;1564;4;138;499;17;4;118;2118;5;123;225;12;5;364;5431;4;267;130;404;531;24;6;258;4049;4;116;134;456;482;22;7;137;2723;4;174;403;15;8;147;2752;4;179;420;15;9;74;1468;4;102;493;12
17.11.17;15:05:00;1;433;3595;0;2;218;2545;4;250;388;14;3;127;1555;4;167;509;17;4;161;2108;5;167;228;12;5;467;5400;4;285;169;405;618;24;6;359;4027;4;169;188;564;550;22;7;197;2712;4;225;447;15;8;191;2739;4;224;426;15;9;101;1462;4;127;497;12
17.11.17;15:00:00;1;717;3562;0;2;244;2527;4;277;394;14;3;147;1545;4;188;499;16;4;193;2094;5;201;232;12;5;531;5361;4;320;191;412;634;24;6;400;3997;4;212;223;578;569;22;7;236;2696;4;276;455;15;8;240;2724;4;277;468;15;9;125;1453;4;153;529;12
17.11.17;14:55:00;1;1839;3500;0;2;253;2506;4;287;389;14;3;153;1533;4;193;493;16;4;196;2078;5;204;231;12;5;528;5316;4;307;184;412;619;24;6;410;3963;4;225;241;578;569;22;7;241;2676;4;279;452;15;8;240;2704;4;283;449;15;9;131;1443;4;160;513;12
17.11.17;14:50:00;1;1197;3332;0;2;257;2485;4;291;385;14;3;153;1520;4;193;519;16;4;202;2062;5;211;232;12;5;552;5272;4;358;218;413;638;24;6;419;3929;4;216;233;576;562;22;7;232;2656;4;272;452;15;8;234;2684;4;272;478;15;9;127;1432;4;154;514;12
17.11.17;14:45:00;1;222;3269;0;2;320;2464;4;355;402;14;3;194;1507;4;239;516;16;4;260;2045;5;271;233;12;5;668;5225;4;424;279;413;641;24;6;512;3893;4;255;261;587;569;22;7;303;2637;4;341;481;15;8;315;2664;4;343;466;15;9;167;1421;4;196;518;12
17.11.17;14:40:00;1;214;3251;0;2;339;2437;4;375;405;14;3;208;1491;4;250;506;16;4;278;2023;5;290;235;12;5;697;5169;4;424;272;415;639;24;6;532;3850;4;276;286;584;568;22;7;325;2611;4;363;471;15;8;330;2638;4;370;474;15;9;177;1408;4;208;526;12
17.11.17;14:35:00;1;201;3233;0;2;301;2409;4;339;394;14;3;184;1474;4;223;498;16;4;246;2000;5;256;235;12;5;651;5111;4;428;277;415;639;24;6;494;3806;4;248;265;591;569;22;7;309;2584;4;349;469;15;8;314;2610;4;348;481;15;9;168;1393;4;197;505;12
17.11.17;14:30:00;1;201;3216;0;2;366;2384;4;402;401;14;3;225;1458;4;269;515;16;4;306;1980;5;318;239;12;5;776;5057;4;469;309;418;637;24;6;589;3765;4;311;326;580;564;22;7;356;2558;4;389;455;15;8;359;2584;4;391;466;15;9;190;1379;4;220;511;12
17.11.17;14:25:00;1;201;3199;0;2;386;2354;4;421;400;14;3;236;1440;4;280;510;16;4;321;1954;5;334;237;12;5;806;4992;4;468;314;419;646;24;6;612;3715;4;311;320;579;575;22;7;390;2529;4;429;458;15;8;393;2555;4;432;472;15;9;212;1363;4;243;523;12
17.11.17;14:20:00;1;220;3183;0;2;381;2321;4;418;400;14;3;235;1420;4;281;508;16;4;321;1928;5;334;239;12;5;850;4924;4;527;357;416;681;24;6;627;3664;4;310;320;587;578;22;7;401;2497;4;448;479;15;8;411;2522;4;452;466;15;9;221;1345;4;252;518;12
17.11.17;14:15:00;1;229;3164;0;2;432;2290;4;471;409;14;3;265;1401;4;313;520;16;4;368;1901;5;383;238;12;5;957;4853;4;567;387;422;683;24;6;713;3611;4;337;350;596;576;22;7;423;2463;4;466;464;15;8;427;2488;4;468;469;15;9;229;1327;4;260;511;12
17.11.17;14:10:00;1;231;3145;0;2;468;2254;4;510;409;14;3;290;1379;4;337;518;16;4;401;1870;5;418;240;12;5;1020;4773;4;613;424;424;682;24;6;775;3551;4;401;409;596;576;22;7;453;2428;4;488;471;15;8;450;2452;4;489;472;15;9;240;1308;4;273;507;12
17.11.17;14:05:00;1;195;3126;0;2;401;2214;4;439;405;14;3;248;1354;4;291;511;16;4;334;1837;5;348;240;12;5;845;4688;4;534;356;426;647;24;6;645;3486;4;348;354;584;574;22;7;387;2390;4;432;483;15;8;387;2415;4;438;485;15;9;216;1288;4;249;525;12
17.11.17;14:00:00;1;187;3109;0;2;348;2181;4;383;401;14;3;212;1333;4;256;516;16;4;283;1809;5;295;239;12;5;719;4618;4;420;273;414;656;24;6;546;3433;4;260;268;578;567;22;7;341;2357;4;375;476;15;8;341;2382;4;378;480;15;9;185;1269;4;213;513;12
17.11.17;13:55:00;1;187;3094;0;2;288;2152;4;321;393;14;3;176;1316;4;218;508;16;4;232;1785;5;241;232;12;5;608;4559;4;366;236;415;634;24;6;466;3388;4;224;232;591;561;22;7;320;2329;4;358;469;15;8;320;2353;4;359;469;15;9;172;1254;4;201;519;12
17.11.17;13:50:00;1;191;3078;0;2;318;2128;4;353;400;14;3;195;1301;4;236;496;16;4;262;1766;5;272;235;12;5;706;4509;4;453;290;418;636;24;6;533;3349;4;274;285;588;572;22;7;366;2302;4;406;473;15;8;369;2327;4;412;465;15;9;198;1240;4;229;522;12
17.11.17;13:45:00;1;251;3062;0;2;415;2101;4;455;405;14;3;255;1285;4;300;510;16;4;352;1744;5;366;236;12;5;909;4448;4;537;372;421;671;24;6;682;3303;4;357;363;598;571;22;7;495;2271;4;533;476;15;8;495;2296;4;534;474;15;9;262;1223;4;298;526;13